Location: Casa Rossa
(45.2389°N, 12.2056°E)
Time: 23:52:27
(UTC+00:00)

ERS-1 - Pass Details

Date: 14 July 2020
Orbit: 741 x 790 km, 98.6° (Epoch: 14 August)

Event Time Altitude Azimuth Distance (km) Brightness Sun altitude
Rises 02:12:24 0° 13° (NNE) 3,254 8.9 -12.2°
Reaches altitude 10° 02:14:44 10° 12° (NNE) 2,316 8.0 -11.9°
Maximum altitude 02:19:50 81° 287° (WNW) 774 4.5 -11.3°
Enters shadow 02:24:35 12° 200° (SSW) 2,165 6.3 -10.7°
